This demonstration page uses our WeatherBlox Daily Observations layout. Learn more.

Left ArrowRight Arrow

36.19886, -115.1175

Hourly Observations for August 17, 2022

Temp ( °F °C ) Dew Point ( °F °C ) Humidity (%) Winds ( mph kmh ) Pressure ( in mb ) Visibility ( mi km ) Precip ( " mm )
12:53 am 00:53 Clear 90 32.2 55 12.8 31 31 NNW 12 19 29.83 1010 10 16 0.00 0.00
1:53 am 01:53 Clear 89 31.7 57 13.9 34 34 NNW 8 13 29.83 1010 10 16 0.00 0.00
2:53 am 02:53 Clear 88 31.1 57 13.9 35 35 NNW 7 11 29.84 1011 10 16 0.00 0.00
3:53 am 03:53 Clear 87 30.6 57 13.9 36 36 Calm 29.86 1011 10 16 0.00 0.00
4:53 am 04:53 Clear 85 29.4 59 15 42 42 N 6 9 29.87 1012 10 16 0.00 0.00
5:53 am 05:53 Clear 84 28.9 59 15 43 43 NNW 6 9 29.88 1012 10 16 0.00 0.00
6:53 am 06:53 Sunny 85 29.4 60 15.6 43 43 Calm 29.90 1013 10 16 0.00 0.00
7:53 am 07:53 Sunny 88 31.1 60 15.6 39 39 Calm 29.91 1013 10 16 0.00 0.00
8:53 am 08:53 Sunny 90 32.2 59 15 35 35 Calm 29.91 1013 10 16 0.00 0.00
9:53 am 09:53 Sunny 94 34.4 58 14.4 30 30 Calm 29.91 1013 10 16 0.00 0.00
10:53 am 10:53 Sunny 96 35.6 58 14.4 28 28 Calm 29.91 1013 10 16 0.00 0.00
11:53 am 11:53 Sunny 97 36.1 58 14.4 27 27 Calm 29.89 1012 10 16 0.00 0.00
12:53 pm 12:53 Sunny 99 37.2 59 15 27 27 undefined N/A 29.87 1012 10 16 0.00 0.00
1:53 pm 13:53 Sunny 101 38.3 58 14.4 24 24 WSW 5 7 29.85 1011 10 16 0.00 0.00
2:53 pm 14:53 Sunny 103 39.4 57 13.9 22 22 undefined N/A 29.82 1010 10 16 0.00 0.00
3:53 pm 15:53 Sunny 103 39.4 56 13.3 21 21 SE 6 9 29.80 1009 10 16 0.00 0.00
4:53 pm 16:53 Mostly Cloudy 104 40 56 13.3 21 21 Calm 29.78 1009 10 16 0.00 0.00
5:53 pm 17:53 Partly Cloudy 101 38.3 59 15 25 25 SSW 15 24 29.79 1009 10 16 0.00 0.00
6:53 pm 18:53 Sunny 101 38.3 58 14.4 24 24 SSW 13 20 29.78 1009 10 16 0.00 0.00
7:53 pm 19:53 Clear 100 37.8 57 13.9 24 24 S 5 7 29.80 1009 10 16 0.00 0.00
8:53 pm 20:53 Clear 98 36.7 57 13.9 26 26 ESE 9 15 29.83 1010 10 16 0.00 0.00
9:53 pm 21:53 Clear 95 35 58 14.4 29 29 ENE 13 20 29.85 1011 10 16 0.00 0.00
10:53 pm 22:53 Clear 93 33.9 60 15.6 34 34 E 13 20 29.85 1011 10 16 0.00 0.00
11:53 pm 23:53 Clear 92 33.3 60 15.6 35 35 E 6 9 29.85 1011 10 16 0.00 0.00

Powered by AerisWeather